OPS 4682 DEB, 38396

Orbit data source: Space-Track

OPS 4682 DEB, 38396 is space debris in LEO originally from a launch on Sat, 03 Apr 1965 UTC launched from the Air Force Western Test Range (AFWTR). Debris objects in space refer to the collection of defunct objects orbiting the Earth. Examples of debris include non-operational satellites, rocket bodies, and fragments generated from explosions, collisions, or faulty payload assembly.

Loading next visibility...
Identifier
38396, 1965-027CZ
Orbit
LEO
Country
Flag of USUS
Related business
Manufacturer
Unknown
Mission
Spacecraft
Bus & Motor
Unknown
Mass
Unknown
Launch date (UTC)
1965-04-03 (61 years ago)
Launch vehicle
Unknown
Launch site
Air Force Western Test Range (AFWTR)
Object type
Payload
Rocket body
Debris
Shape & HBR
Unknown shape, 0.1 m
Radar Cross Section
Small (<0.1 m²)

Expand to show TLE details & history
Last TLE update: 1 day ago

TLE from 1 day ago
0 OPS 4682 DEB
1 38396U 65027CZ  26103.45259862 -.00000271  00000-0 -94933-3 0  9995
2 38396  90.2557   9.8431 0035465 264.8195  94.8878 12.97883644654801
Epoch: 2026-04-13T10:51Z
TLE epoch observation values (Epoch: 2026-04-13T10:51:44.520Z)
Latitude
-0.00005°
Longitude
5.26461°
Altitude
1,275.678 km
Speed
7.217 km/s
True Right ascension
00h 39m 22s
True Declination
0° 00' 00"
Sunlit
Object was in daylight at epoch
Visualization orbit readout
Latitude
Unknown
Longitude
Unknown
Altitude
Unknown
Speed
Unknown
Apparent Right ascension
Unknown
Apparent Declination
Unknown
Sunlit
N/A
Visualization observer readout
Local Sidereal Time
22:57:31
Azimuth
Unknown
Elevation
Unknown
Doppler factor
Unknown
Orbital elements
Apogee altitude
1,294.635 km
Perigee altitude
1,240.405 km
Semi-major axis
7,645.657 km
Eccentricity
0.00355
Inclination
90.2557°
RAAN
9.8431°
Arg. of periapsis
264.8195°
True anomaly
95.29256°
Mean anomaly
94.8878°
Eccentric anomaly
95.0902°
Mean motion
3.24654 °/min
Orbital period
110.89 mins
BSTAR
-0.00094933
Loading maneuver chart data...
Computing Atmospheric mass density...
Loading historical data...
Loading historical data...
Loading historical data...
Loading historical data...
Loading historical data...
Loading historical data...
Loading historical data...

Documentation

Showing up to 5 results
|